Simultaneous Nadir Overpasses (SNOs) Predictions

Prediction of SNOs between GOES-17 and NOAA-19 Satellite Orbit:

Table of predicted SNOs for the next 14.0 days since TLE Epoch: 8/20/2022
Index Date Time (GOES-17) GOES-17 Lat,Lon NOAA-19 Lat,Lon Distance(km) Time Diff (sec)
1 08/22/2022 05:18:10 0.01,-137.32 -0.74,-140.54 367.74 80
2 08/23/2022 05:06:18 0.00,-137.32 -0.09,-137.64 37.23 80
3 08/24/2022 04:57:06 0.01,-137.32 0.62,-134.75 293.32 80
4 08/26/2022 17:14:54 -0.02,-137.32 0.53,-139.60 260.59 80
5 08/27/2022 17:05:43 -0.02,-137.32 -0.17,-136.71 69.41 80
6 08/28/2022 16:53:51 -0.02,-137.31 -0.86,-133.82 399.35 80
7 08/30/2022 05:23:37 0.03,-137.30 -0.95,-141.59 489.29 80
8 08/31/2022 05:11:45 0.03,-137.29 -0.29,-138.69 159.54 80
9 09/01/2022 05:02:32 0.03,-137.28 0.37,-135.80 170.00 80
10 09/02/2022 04:50:40 0.02,-137.27 1.03,-132.90 499.29 80
